Zurück zum Katalog

CZ-6A DEB

AktivPO
NORAD 60805·DEBRIS·🇨🇳 China

Gestartet Aug 6, 2024 von Taiyuan Satellite Launch Center

Loading…

Nächste Überflüge (nächste 24 Stunden)

TLE

AktuellSource: Space-Track

Epoche: Sep 14, 2026, 13:16 UTC

1 60805U 24140GG  26257.55314435  .00000540  00000-0  29757-3 0  9994
2 60805  89.2962 292.7373 0102571 292.5152  66.5198 14.07750409107394

Verfolge CZ-6A DEB in Echtzeit mit AllMySat

Download on the App Store